Showing default

CHUANG XIN 16A (CX-16A), 53586

Orbit data source: Space-Track

CHUANG XIN 16A (CX-16A), 53586 is a payload satellite owned by IMI/CAS (CN) in LEO that was launched on Tue, 23 Aug 2022 UTC via a KUAIZHOU-1A launch vehicle from the Xichang Space Center, China (XSC). Payload-class satellites include a variety of spacecraft equipped with specific instruments for various scientific and technological missions. These include communications satellites like Starlink; space stations such as the ISS; scientific satellites like the Hubble; Earth observation satellites from companies like Planet Labs, Umbra, and HawkEye 360; GPS; miniature CubeSats for education and research; and military/defense satellites.

Loading next visibility...
Identifier
53586, 2022-102A
Orbit
LEO
Country
Flag of CNCN / PRC
Related business
Manufacturer
IMI/CAS
Mission
Operational Civil Technology
Bus & Motor
CX16, Unknown motor
Mass
100 kg wet, ~100 kg dry
Launch date (UTC)
2022-08-23 (4 years ago)
Launch vehicle
KUAIZHOU-1A
Launch site
Xichang Space Center, China (XSC)
Object type
Payload
Rocket body
Debris
Shape & HBR
Box + 1 Pan, 1.0 m
Radar Cross Section
0.763 m², Large (>1 m²)

Expand to show TLE details & history
Last TLE update: 1 day ago

TLE from 1 day ago
0 CHUANG XIN 16A (CX-16A)
1 53586U 22102A   26093.69135338  .00003820  00000-0  24736-3 0  9990
2 53586  28.9949  93.5028 0004637 305.4883  54.5284 15.05675597198284
Epoch: 2026-04-03T16:35Z
TLE epoch observation values (Epoch: 2026-04-03T16:35:32.932Z)
Latitude
0.00003°
Longitude
12.59378°
Altitude
545.891 km
Speed
7.593 km/s
True Right ascension
06h 14m 00s
True Declination
0° 00' 00"
Sunlit
Object was in daylight at epoch
Visualization orbit readout
Latitude
Unknown
Longitude
Unknown
Altitude
Unknown
Speed
Unknown
Apparent Right ascension
Unknown
Apparent Declination
Unknown
Sunlit
N/A
Visualization observer readout
Local Sidereal Time
06:30:05
Azimuth
Unknown
Elevation
Unknown
Doppler factor
Unknown
Orbital elements
Apogee altitude
556.77 km
Perigee altitude
550.341 km
Semi-major axis
6,931.692 km
Eccentricity
0.00046
Inclination
28.9949°
RAAN
93.5028°
Arg. of periapsis
305.4883°
True anomaly
54.57169°
Mean anomaly
54.5284°
Eccentric anomaly
54.55004°
Mean motion
3.76083 °/min
Orbital period
95.72 mins
BSTAR
0.00024736
Loading maneuver chart data...
Computing Atmospheric mass density...
Loading historical data...
Loading historical data...
Loading historical data...
Loading historical data...
Loading historical data...
Loading historical data...
Loading historical data...
Other satellites on launch #102 in the year 2022 (2022-08-23 UTC)

Documentation

Showing up to 5 results
|